Weather History for Muscatine, IA

Change the Weather History Date:

Friday, February 22, 2013

  Actual Average Record
Temperature  
Mean Temperature 27 °F -  
Max Temperature 30 °F 41 °F 64 °F (1977)
Min Temperature 24 °F 23 °F -7 °F (1978)
Degree Days  
Heating Degree Days 38    
Moisture  
Dew Point 20 °F    
Average Humidity 74    
Maximum Humidity 86    
Minimum Humidity 64    
Precipitation  
Precipitation 0.11 in - - ()
Sea Level Pressure  
Sea Level Pressure 29.86 in    
Wind  
Wind Speed 9 mph (WSW)    
Max Wind Speed 17 mph    
Max Gust Speed 21 mph    
Visibility 8 miles    
Events Snow    
Averages and records for this station are not official NWS values.
T = Trace of Precipitation, MM = Missing Value Source: NWS Daily Summary

Daily Weather History Graph

Daily Weather History Graph

Search for Another Location

Airport:

Trip Planner

Search our weather history database for the weather conditions in past years. The results will help you decide how hot, cold, wet, or windy it might be!

Date:

Astronomy

Feb. 22, 2013 Rise Set
Actual Time 6:49 AM CST 5:47 PM CST
Civil Twilight 6:21 AM CST 6:15 PM CST
Nautical Twilight 5:49 AM CST 6:47 PM CST
Astronomical Twilight 5:17 AM CST 7:19 PM CST
Moon 2:57 PM CST (2/22) 4:36 AM CST (2/22)
Length of Visible Light 11h 54m
Length of Day
10h 58m
Waxing Gibbous, 90% of the Moon is Illuminated
Feb 22
Waxing Gibbous
Feb 25
Full
Mar 4
Last Quarter
Mar 11
New
Mar 19
First Quarter

Hourly Weather History & Observations

Time (CST) Temp. Windchill Dew Point Humidity Pressure Visibility Wind Dir Wind Speed Gust Speed Precip Events Conditions
12:15 AM 24.8 °F 15.3 °F 19.4 °F 80% 29.87 in 2.0 mi East 9.2 mph - N/A Snow Light Snow
12:35 AM 24.8 °F 15.3 °F 19.4 °F 80% 29.86 in 2.5 mi East 9.2 mph - N/A Snow Light Snow
12:55 AM 24.8 °F 16.1 °F 19.4 °F 80% 29.85 in 4.0 mi East 8.1 mph - N/A Snow Light Snow
1:15 AM 24.8 °F 16.9 °F 19.4 °F 80% 29.85 in 10.0 mi East 6.9 mph - N/A   Overcast
1:35 AM 26.6 °F 16.2 °F 19.4 °F 74% 29.83 in 10.0 mi East 11.5 mph - N/A   Overcast
1:55 AM 26.6 °F 20.0 °F 19.4 °F 74% 29.83 in 10.0 mi ESE 5.8 mph - N/A   Overcast
2:15 AM 26.6 °F 19.1 °F 19.4 °F 74% 29.83 in 10.0 mi ESE 6.9 mph - N/A   Overcast
2:35 AM 26.6 °F 15.7 °F 19.4 °F 74% 29.82 in 10.0 mi East 12.7 mph - N/A   Overcast
2:55 AM 26.6 °F 18.2 °F 19.4 °F 74% 29.80 in 10.0 mi East 8.1 mph - N/A   Overcast
3:15 AM 26.6 °F 17.5 °F 19.4 °F 74% 29.80 in 10.0 mi East 9.2 mph - N/A   Overcast
3:35 AM 26.6 °F 18.2 °F 21.2 °F 80% 29.79 in 7.0 mi East 8.1 mph - N/A   Overcast
3:55 AM 26.6 °F 18.2 °F 21.2 °F 80% 29.78 in 7.0 mi East 8.1 mph - N/A   Overcast
4:15 AM 26.6 °F 17.5 °F 21.2 °F 80% 29.78 in 7.0 mi East 9.2 mph - N/A   Overcast
4:35 AM 26.6 °F 21.2 °F 21.2 °F 80% 29.77 in 5.0 mi East 4.6 mph - N/A   Overcast
4:55 AM 26.6 °F 20.0 °F 21.2 °F 80% 29.77 in 2.0 mi East 5.8 mph - N/A Snow Light Snow
5:15 AM 26.6 °F - 21.2 °F 80% 29.77 in 2.0 mi Calm Calm - N/A Snow Light Snow
5:35 AM 26.6 °F 21.2 °F 21.2 °F 80% 29.77 in 3.0 mi East 4.6 mph - N/A   Overcast
5:55 AM 26.6 °F 22.6 °F 21.2 °F 80% 29.76 in 2.0 mi East 3.5 mph - N/A Snow Light Snow
6:15 AM 26.6 °F - 21.2 °F 80% 29.77 in 2.0 mi Calm Calm - N/A Snow Light Snow
6:35 AM 26.6 °F - 21.2 °F 80% 29.77 in 1.8 mi Calm Calm - N/A Snow Light Snow
6:55 AM 26.6 °F - 23.0 °F 86% 29.77 in 2.0 mi Calm Calm - N/A Snow Light Snow
7:15 AM 26.6 °F - 23.0 °F 86% 29.78 in 2.5 mi Calm Calm - N/A Snow Light Snow
7:35 AM 26.6 °F - 23.0 °F 86% 29.78 in 1.8 mi Calm Calm - N/A Snow Light Snow
7:55 AM 26.6 °F - 23.0 °F 86% 29.78 in 1.8 mi Calm Calm - N/A Snow Light Snow
8:15 AM 26.6 °F - 23.0 °F 86% 29.79 in 2.0 mi Calm Calm - N/A   Overcast
8:35 AM 26.6 °F - 23.0 °F 86% 29.79 in 2.5 mi Calm Calm - N/A Snow Light Snow
8:55 AM 28.4 °F - 23.0 °F 80% 29.80 in 2.5 mi Calm Calm - N/A Snow Light Snow
9:15 AM 28.4 °F - 23.0 °F 80% 29.81 in 3.0 mi Calm Calm - N/A Snow Light Snow
9:35 AM 28.4 °F 21.2 °F 24.8 °F 86% 29.81 in 4.0 mi SW 6.9 mph - N/A Snow Light Snow
9:55 AM 30.2 °F 24.3 °F 24.8 °F 80% 29.81 in 5.0 mi WSW 5.8 mph - N/A Snow Light Snow
10:15 AM 30.2 °F 21.9 °F 24.8 °F 80% 29.81 in 5.0 mi WSW 9.2 mph - 0.01 in Snow Light Snow
10:35 AM 30.2 °F 20.2 °F 24.8 °F 80% 29.82 in 7.0 mi WSW 12.7 mph - 0.03 in   Overcast
10:55 AM 30.2 °F 21.3 °F 24.8 °F 80% 29.83 in 10.0 mi WSW 10.4 mph - 0.04 in   Overcast
11:15 AM 30.2 °F 20.8 °F 23.0 °F 75% 29.83 in 10.0 mi WSW 11.5 mph - N/A   Overcast
11:35 AM 30.2 °F 20.2 °F 23.0 °F 75% 29.84 in 10.0 mi WSW 12.7 mph - 0.03 in   Overcast
11:55 AM 30.2 °F 19.3 °F 23.0 °F 75% 29.85 in 10.0 mi WSW 15.0 mph - 0.05 in   Overcast
12:15 PM 30.2 °F 19.8 °F 21.2 °F 69% 29.84 in 10.0 mi West 13.8 mph - 0.01 in   Overcast
12:35 PM 30.2 °F 18.5 °F 21.2 °F 69% 29.85 in 7.0 mi West 17.3 mph - 0.01 in   Overcast
12:55 PM 30.2 °F 18.5 °F 21.2 °F 69% 29.85 in 10.0 mi West 17.3 mph - 0.01 in   Overcast
1:15 PM 30.2 °F 18.9 °F 21.2 °F 69% 29.86 in 10.0 mi WSW 16.1 mph - N/A   Overcast
1:35 PM 30.2 °F 18.5 °F 21.2 °F 69% 29.86 in 10.0 mi WSW 17.3 mph - N/A   Overcast
1:55 PM 30.2 °F 19.8 °F 21.2 °F 69% 29.86 in 10.0 mi WSW 13.8 mph 18.4 mph 0.01 in   Overcast
2:15 PM 30.2 °F 18.5 °F 19.4 °F 64% 29.87 in 10.0 mi WSW 17.3 mph 20.7 mph N/A   Overcast
2:35 PM 30.2 °F 20.2 °F 19.4 °F 64% 29.88 in 10.0 mi WSW 12.7 mph - N/A   Overcast
2:55 PM 30.2 °F 18.9 °F 19.4 °F 64% 29.88 in 10.0 mi West 16.1 mph - N/A   Overcast
3:15 PM 30.2 °F 19.3 °F 19.4 °F 64% 29.89 in 10.0 mi WSW 15.0 mph - N/A   Overcast
3:35 PM 30.2 °F 20.2 °F 19.4 °F 64% 29.89 in 10.0 mi West 12.7 mph - N/A   Overcast
3:55 PM 30.2 °F 20.8 °F 19.4 °F 64% 29.89 in 10.0 mi West 11.5 mph - N/A   Overcast
4:15 PM 28.4 °F 17.0 °F 19.4 °F 69% 29.90 in 10.0 mi West 15.0 mph 18.4 mph N/A   Overcast
4:35 PM 30.2 °F 19.8 °F 19.4 °F 64% 29.90 in 10.0 mi West 13.8 mph - N/A   Overcast
4:55 PM 28.4 °F 18.0 °F 19.4 °F 69% 29.91 in 10.0 mi West 12.7 mph - N/A   Overcast
5:15 PM 28.4 °F 18.0 °F 19.4 °F 69% 29.91 in 10.0 mi West 12.7 mph - N/A   Overcast
5:35 PM 28.4 °F 16.6 °F 19.4 °F 69% 29.92 in 10.0 mi West 16.1 mph - N/A   Overcast
5:55 PM 28.4 °F 17.0 °F 19.4 °F 69% 29.93 in 10.0 mi West 15.0 mph - N/A   Overcast
6:15 PM 28.4 °F 16.6 °F 19.4 °F 69% 29.93 in 10.0 mi West 16.1 mph - N/A   Overcast
6:35 PM 28.4 °F 16.2 °F 19.4 °F 69% 29.94 in 10.0 mi West 17.3 mph 20.7 mph N/A   Overcast
6:55 PM 26.6 °F 14.3 °F 19.4 °F 74% 29.94 in 10.0 mi West 16.1 mph - N/A   Overcast
7:15 PM 26.6 °F 15.7 °F 19.4 °F 74% 29.96 in 10.0 mi West 12.7 mph - N/A   Overcast
7:35 PM 26.6 °F 16.2 °F 17.6 °F 69% 29.96 in 10.0 mi West 11.5 mph - N/A   Overcast
7:55 PM 26.6 °F 15.2 °F 17.6 °F 69% 29.96 in 10.0 mi West 13.8 mph 17.3 mph N/A   Overcast
8:15 PM 24.8 °F 13.4 °F 17.6 °F 74% 29.97 in 10.0 mi West 12.7 mph - N/A   Overcast
8:35 PM 24.8 °F 12.9 °F 17.6 °F 74% 29.97 in 10.0 mi West 13.8 mph - N/A   Overcast
8:55 PM 24.8 °F 13.4 °F 17.6 °F 74% 29.97 in 10.0 mi West 12.7 mph - N/A   Overcast
9:15 PM 24.8 °F 13.4 °F 17.6 °F 74% 29.98 in 10.0 mi West 12.7 mph - N/A   Overcast
9:35 PM 24.8 °F 13.4 °F 17.6 °F 74% 29.98 in 10.0 mi West 12.7 mph - N/A   Overcast
9:55 PM 24.8 °F 12.9 °F 15.8 °F 69% 29.98 in 10.0 mi West 13.8 mph - N/A   Overcast
10:15 PM 24.8 °F 14.0 °F 15.8 °F 69% 29.98 in 10.0 mi West 11.5 mph - N/A   Overcast
10:35 PM 24.8 °F 14.6 °F 15.8 °F 69% 29.98 in 10.0 mi West 10.4 mph - N/A   Overcast
10:55 PM 24.8 °F 13.4 °F 15.8 °F 69% 29.98 in 10.0 mi West 12.7 mph - N/A   Overcast
11:15 PM 24.8 °F 14.0 °F 15.8 °F 69% 29.97 in 10.0 mi West 11.5 mph - N/A   Overcast
11:35 PM 24.8 °F 14.0 °F 15.8 °F 69% 29.97 in 10.0 mi WSW 11.5 mph - N/A   Overcast
11:55 PM 24.8 °F 14.0 °F 15.8 °F 69% 29.97 in 10.0 mi West 11.5 mph - N/A   Overcast